Regional Weather Roundup
Issued by NWS San Angelo, TX

Current Version | Previous Version | Text Only | Print | Product List | Glossary On
Versions: 1 2 3 4 5 6 7 8 9 10 11 12 13 14 15 16 17 18 19 20 21 22 23 24 25 26 27 28 29 30 31 32 33 34 35 36 37 38 39 40 41 42 43 44 45 46 47 48 49 50
000
ASUS44 KSJT 302210
RWRSJT
WEST CENTRAL TEXAS REGIONAL WEATHER ROUNDUP
NATIONAL WEATHER SERVICE SAN ANGELO TX
500 PM CDT TUE SEP 30 2014

NOTE: "FAIR" INDICATES FEW OR NO CLOUDS BELOW 12,000 FEET WITH NO
SIGNIFICANT WEATHER AND/OR OBSTRUCTIONS TO VISIBILITY.

TXZ049-054-064>066-071>073-076>078-098-099-113-114-127-128-139-140-
154-155-168>170-302300
...LOCATIONS ACROSS WEST CENTRAL TEXAS...

CITY           SKY/WX    TMP DP  RH WIND       PRES   REMARKS
SAN ANGELO     SUNNY     92  58  31 S9        29.76F
ABILENE        MOSUNNY   91  57  31 S12G25    29.77F
DYESS AFB      PTSUNNY   91  59  33 SE14      29.76F
JUNCTION       SUNNY     88  60  38 SW8G21    29.79F
SWEETWATER     SUNNY     88  58  36 S14G21    29.81F
BROWNWOOD      SUNNY     90  57  33 S9G17     29.78F
COLEMAN        CLEAR     92  54  27 S10G16    29.78F
SONORA         SUNNY     88  59  37 SW10G16   29.84F
OZONA          FAIR      88  59  37 S15G22    29.83F
BRADY          MOSUNNY   90  59  35 E10       29.79F
$$

TEXAS PANHANDLE/OKLAHOMA PANHANDLE

CITY           SKY/WX    TMP DP  RH WIND       PRES   REMARKS
AMARILLO       SUNNY     82  42  24 SW18G28   29.78F
BORGER         SUNNY     87  40  19 SW13G32   29.73F
CANADIAN       PTSUNNY   87  62  42 S15G24    29.70S
DALHART        SUNNY     80  39  23 SW7       29.78F
DUMAS          CLEAR     81  39  22 SW15G25   29.77F
GUYMON         NOT AVBL
HEREFORD       CLEAR     82  43  25 S16G24    29.81F
PAMPA          PTCLDY    84  42  22 SW13G23   29.76S
PERRYTON       MOSUNNY   88  34  15 W20G25    29.70F
$$

SOUTHERN PANHANDLE/SOUTH PLAINS/ROLLING PLAINS

CITY           SKY/WX    TMP DP  RH WIND       PRES   REMARKS
LUBBOCK        MOSUNNY   85  58  39 SW12      29.78F
SNYDER         SUNNY     87  63  44 S17G23    29.77F
CHILDRESS      PTSUNNY   88  60  38 S18G26    29.74F
SEMINOLE       CLEAR     86  50  28 SW15      29.82S
$$

PERMIAN BASIN

CITY           SKY/WX    TMP DP  RH WIND       PRES   REMARKS
MIDLAND        SUNNY     90  57  32 W9        29.78F
ODESSA         SUNNY     89  54  30 SW10      29.80F
WINK           SUNNY     90  57  32 SW13      29.77F
$$

FAR WEST/SOUTHWEST MOUNTAINS/TRANS PECOS

CITY           SKY/WX    TMP DP  RH WIND       PRES   REMARKS
ALPINE         PTCLDY    87  48  25 W10       29.96F
DRYDEN           N/A     91  59  33 S8        29.77F
EL PASO        MOSUNNY   85  45  24 SW12G17   29.85F
FORT STOCKTON  PTSUNNY   89  55  31 NW5       29.80F
GUADALUPE PASS SUNNY     77  46  33 SW23G41   29.95F
MARFA          PTSUNNY   84  52  32 SW10      29.96F
PECOS          PTCLDY    91  56  30 CALM      29.76F
$$

DALLAS/FORT WORTH METROPLEX

CITY           SKY/WX    TMP DP  RH WIND       PRES   REMARKS
DFW AIRPORT    MOSUNNY   90  63  40 SE14      29.75F
FTW MEACHAM    MOSUNNY   92  60  34 S13       29.75F
DAL-EXECUTIVE  MOSUNNY   92  62  36 VRB7G17   29.76F
GRAND PRAIRIE  SUNNY     90  59  35 MISG      29.77F
ADDISON        MOSUNNY   88  61  40 SE9G16    29.76
MESQUITE       PTCLDY    90  63  40 SE8G16    29.77F
LANCASTER      PTCLDY    89  61  38 SE8       29.77S
$$

NORTH CENTRAL TEXAS

CITY           SKY/WX    TMP DP  RH WIND       PRES   REMARKS
SHRMAN/DENISON PTCLDY    88  61  39 E8        29.78F
GAINESVILLE    MOSUNNY   88  63  43 SE10G18   29.78F
BRIDGEPORT     CLEAR     91  50  23 S9G17     29.77F
DENTON         MOSUNNY   88  62  41 SE10      29.75F
WAXAHACHIE     MOCLDY    91  65  41 S12       29.78S
GRANBURY       PTCLDY    92  54  26 SE9       29.77F
$$

WESTERN NORTH TEXAS

CITY           SKY/WX    TMP DP  RH WIND       PRES   REMARKS
WICHITA FALLS  MOSUNNY   91  55  29 S17G26    29.72F
VERNON         PTCLDY    93  54  26 S20G25    29.72S
BRECKENRIDGE   CLEAR     92  53  26 SE14G22   29.75F HAZE
COMANCHE       SUNNY     91  53  27 SE12      29.79F
$$

CENTRAL AND SOUTH CENTRAL TEXAS

CITY           SKY/WX    TMP DP  RH WIND       PRES   REMARKS
AUSTIN/BERGSTM PTSUNNY   88  68  51 E8        29.77F
WACO           MOSUNNY   88  62  41 S9        29.76F
HILLSBORO      PTCLDY    91  60  34 S9        29.77S
TEMPLE         MOSUNNY   90  63  40 SE9       29.77F
KILLEEN-GRAY   MOSUNNY   88  61  40 SE7       29.79F
FORT HOOD      NOT AVBL
GEORGETOWN     MOSUNNY   88  64  45 S7        29.79F
LAGO VISTA     FAIR      89  60  37 SE6       29.81F
SAN MARCOS     MOSUNNY   90  63  40 S7        29.78F
NEW BRAUNFELS  MOSUNNY   91  64  40 S7        29.76F
RANDOLPH AFB   PTSUNNY   90  64  41 SE9G20    29.78F
SAN ANTONIO    MOSUNNY   90  64  42 SE13      29.78F
STINSON        SUNNY     89  64  43 E6        29.75F
PLEASANTON     NOT AVBL
LA GRANGE      SUNNY     89  71  55 SE3       29.76S
GIDDINGS       PTCLDY    88  69  52 SE6       29.81F
$$

EAST TEXAS

CITY           SKY/WX    TMP DP  RH WIND       PRES   REMARKS
PARIS          PTSUNNY   84  63  48 E12       29.80F
CLARKSVILLE    NOT AVBL
TYLER          PTSUNNY   89  67  47 SE9       29.79F
LONGVIEW       MOSUNNY   89  66  46 S10       29.79F
PALESTINE      PTCLDY    88  70  54 S8        29.80F
NACOGDOCHES    SUNNY     88  66  48 SE9       29.80F
$$

TEXAS HILL COUNTRY AND EDWARDS PLATEAU

CITY           SKY/WX    TMP DP  RH WIND       PRES   REMARKS
LLANO          PTCLDY    90  63  40 S8        29.81S
HORSESHOE BAY  FAIR      86  60  40 S7        29.79F
KERRVILLE      SUNNY     86  64  48 S6        29.82F
FREDERICKSBRG  PTSUNNY   85  61  44 S8        29.82F
ROCKSPRINGS    CLEAR     84  63  48 S10       29.86F
HONDO          MOSUNNY   90  63  40 VRB6      29.79F
UVALDE         MOCLDY    89  66  46 S7        29.78F
DEL RIO        SUNNY     89  65  44 SE12      29.74F
$$

SOUTHEAST TEXAS

CITY           SKY/WX    TMP DP  RH WIND       PRES   REMARKS
COLLEGE STN    SUNNY     88  69  53 SE6       29.78S
CALDWELL       CLEAR     88  66  48 SE7       29.81S
CROCKETT       PTCLDY    88  73  62 SE6       29.82S
BRENHAM        SUNNY     89  68  50 E6        29.78S
HUNTSVILLE     MOSUNNY   88  70  55 VRB5      29.79S
CONROE         PTSUNNY   86  70  58 SE6       29.79F
HOUSTON BUSH   PTSUNNY   87  72  60 E10       29.78S
HOUSTON HOBBY  PTSUNNY   82  74  76 S7        29.79R
PERLAND        PTSUNNY   84  74  71 E7        29.81S
WHARTON        CLOUDY    80  73  79 E9        29.80S
$$

THE UPPER TEXAS COAST

CITY           SKY/WX    TMP DP  RH WIND       PRES   REMARKS
ORANGE         CLEAR     86  70  59 S9        29.82S
PORT ARTHUR    SUNNY     87  73  62 SE12      29.80S
GALVESTON      MOSUNNY   83  76  79 E8        29.81S
ANGLETON       PTSUNNY   84  75  74 SE12      29.80S
BAY CITY       CLOUDY   N/A N/A N/A NE3       29.79S
$$

TEXAS COASTAL BEND, RIO GRANDE PLAINS DEEP SOUTH TEXAS

CITY           SKY/WX    TMP DP  RH WIND       PRES   REMARKS
VICTORIA       MOSUNNY   87  75  67 SE12      29.77F
BEEVILLE       FAIR      89  73  59 E8        29.76F
ROCKPORT       MOSUNNY   86  75  69 SE10      29.76F
PORT ARANSAS   CLEAR     83  76  79 E9        29.76F
PORT LAVACA    PTCLDY    84  74  71 E9        29.77F
CORPUS CHRISTI MOSUNNY   85  74  69 E12       29.76F
KINGSVILLE NAS PTSUNNY   82  78  88 CALM      29.76F
COTULLA        SUNNY     91  64  40 S5        29.75F
LAREDO         SUNNY     92  69  46 S5        29.77F
BROWNSVILLE    MOSUNNY   89  77  67 S5        29.74F
PORT ISABEL    SUNNY     86  76  71 E13       29.74F
HEBBRONVILLE     N/A     89  69  51 E6        29.78S
MCALLEN        MOSUNNY   89  74  60 S6        29.75S
WESLACO        SUNNY     86  71  61 CALM      29.74S
FALFURRIAS     PTCLDY    85  74  69 E8        29.75S
EDINBURG       PTCLDY    88  72  58 E6        29.74F
$$



USA.gov is the U.S. government's official web portal to all federal, state and local government web resources and services.